Location: Kawakawa
(35.3830°S, 174.0670°E)
Time: 03:11:55
(UTC+12:00)

Cosmos 1833 - Pass Details

Date: 15 August 2020
Orbit: 836 x 862 km, 70.9° (Epoch: 19 September)

Event Time Altitude Azimuth Distance (km) Brightness Sun altitude
Rises 19:50:53 0° 198° (SSW) 3,439 7.6 -24.7°
Reaches altitude 10° 19:53:24 10° 194° (SSW) 2,493 6.8 -25.2°
Enters shadow 19:58:02 52° 157° (SSE) 1,053 4.5 -26.2°
